Tracking 31027 objects as of 19-Jul-2025
HD Live streaming from Space Station
objects crossing your sky now

DMSP 5D-3 F16 DEB

Track DMSP 5D-3 F16 DEB now!
10-day predictions


NORAD ID: 28056
Int'l Code: 2003-048C
Perigee: 792.5 km
Apogee: 798.7 km
Inclination: 98.8 °
Period: 100.6 minutes
Semi major axis: 7166 km
RCS: 0.072 m2 (small)
Launch date: October 18, 2003
Source: United States (US)
Launch site: AIR FORCE WESTERN TEST RANGE (AFWTR)

Note: This is SATELLITE DEBRIS
Your satellite tracking list
ICEYE-X27
Track 1 satellite(s)




NASA's NSSDC Master Catalog

Two Line Element Set (TLE):
1 28056U 03048C   25199.96117072  .00001588  00000-0  62098-3 0  9995
2 28056  98.7944 204.6561 0004304  73.5917 286.5738 14.30970804126768
Source of the keplerian elements: AFSPC